Deming, NM

3:54 AM MDT on July 30, 2016 (GMT -0600)
Deming Municipal

Weather History for KDMN - May, 2014

Change the Weather History Date:

Wednesday, May 28, 2014

  Actual Average Record
Temperature  
Mean Temperature 80 °F 72 °F  
Max Temperature 97 °F 91 °F 104 °F (1951)
Min Temperature 62 °F 54 °F 41 °F (2012)
Cooling Degree Days 14    
Growing Degree Days 30 (Base 50)    
Moisture  
Dew Point 29 °F    
Average Humidity 20    
Maximum Humidity 31    
Minimum Humidity 8    
Precipitation  
Precipitation 0.00 in 0.01 in 0.00 in (2016)
Month to date precipitation T 0.42  
Year to date precipitation 0.57 2.40  
Sea Level Pressure  
Sea Level Pressure 29.78 in    
Wind  
Wind Speed 10 mph (East)    
Max Wind Speed 21 mph    
Max Gust Speed 27 mph    
Visibility 10 miles    
Events      
T = Trace of Precipitation, MM = Missing Value Source: NWS Daily Summary

Daily Weather History Graph

Daily Weather History Graph

Search for Another Location

Airport or City:

Trip Planner

Search our weather history database for the weather conditions in past years. The results will help you decide how hot, cold, wet, or windy it might be!

Date:

Astronomy

May. 28, 2014 Rise Set
Actual Time 6:06 AM MDT 8:10 PM MDT
Civil Twilight 5:38 AM MDT 8:38 PM MDT
Nautical Twilight 5:04 AM MDT 9:12 PM MDT
Astronomical Twilight 4:28 AM MDT 9:48 PM MDT
Moon 6:10 AM MDT (5/28) 8:14 PM MDT (5/28)
Length of Visible Light 14h 59m
Length of Day
14h 04m
Waning Crescent, 0% of the Moon is Illuminated
May 28
Waning Crescent
May 28
New
Jun 5
First Quarter
Jun 12
Full
Jun 19
Last Quarter

Hourly Weather History & Observations

Time (MDT) Temp. Dew Point Humidity Pressure Visibility Wind Dir Wind Speed Gust Speed Precip Events Conditions
12:53 AM 70.0 °F 26.1 °F 19% 29.80 in 10.0 mi North 5.8 mph - N/A   Clear
1:53 AM 68.0 °F 25.0 °F 20% 29.79 in 10.0 mi ENE 10.4 mph - N/A   Clear
2:53 AM 64.9 °F 26.1 °F 23% 29.79 in 10.0 mi NNE 9.2 mph - N/A   Clear
3:53 AM 64.0 °F 27.0 °F 25% 29.80 in 10.0 mi NE 6.9 mph - N/A   Clear
4:53 AM 64.9 °F 30.9 °F 28% 29.81 in 10.0 mi NE 10.4 mph - N/A   Clear
5:53 AM 64.0 °F 33.1 °F 31% 29.82 in 10.0 mi ENE 8.1 mph - N/A   Clear
6:53 AM 64.0 °F 33.1 °F 31% 29.83 in 10.0 mi ENE 9.2 mph - N/A   Clear
7:53 AM 73.0 °F 36.0 °F 26% 29.84 in 10.0 mi NE 12.7 mph - N/A   Clear
8:53 AM 80.1 °F 37.0 °F 21% 29.85 in 10.0 mi East 12.7 mph - N/A   Clear
9:53 AM 84.0 °F 36.0 °F 18% 29.85 in 10.0 mi East 11.5 mph - N/A   Clear
10:53 AM 88.0 °F 32.0 °F 14% 29.85 in 10.0 mi SSE 12.7 mph 20.7 mph N/A   Clear
12:53 PM 93.0 °F 30.9 °F 11% 29.81 in - East 11.5 mph 18.4 mph N/A   Clear
1:53 PM 93.9 °F 28.9 °F 10% 29.79 in - ESE 12.7 mph 25.3 mph N/A   Clear
2:53 PM 93.9 °F 28.0 °F 10% 29.76 in - East 9.2 mph 19.6 mph N/A   Clear
4:53 PM 95.0 °F 25.0 °F 8% 29.73 in - South 8.1 mph - N/A   Clear
5:53 PM 93.0 °F 27.0 °F 9% 29.71 in - South 9.2 mph - N/A   Clear
6:53 PM 93.0 °F 25.0 °F 9% 29.71 in 10.0 mi SSE 10.4 mph - N/A   Clear
7:53 PM 89.1 °F 25.0 °F 10% 29.70 in 10.0 mi SE 4.6 mph - N/A   Clear
9:53 PM 82.9 °F 28.0 °F 14% 29.71 in 10.0 mi SE 9.2 mph - N/A   Clear
10:53 PM 79.0 °F 28.9 °F 16% 29.72 in 10.0 mi ENE 12.7 mph 18.4 mph N/A   Clear